Weather History for Burlington, CO

Change the Weather History Date:

Sunday, January 8, 2012

  Actual Average Record
Temperature  
Mean Temperature 30 °F 29 °F  
Max Temperature 40 °F 42 °F 74 °F (1956)
Min Temperature 20 °F 17 °F -15 °F (1937)
Degree Days  
Heating Degree Days 35    
Moisture  
Dew Point 21 °F    
Average Humidity 78    
Maximum Humidity 92    
Minimum Humidity 47    
Precipitation  
Precipitation 0.01 in 0.01 in 0.78 in (1939)
Month to date precipitation 0.01 0.08  
Year to date precipitation 0.01 0.08  
Sea Level Pressure  
Sea Level Pressure 30.26 in    
Wind  
Wind Speed 6 mph (SW)    
Max Wind Speed 14 mph    
Max Gust Speed -    
Visibility 9 miles    
Events Snow    
T = Trace of Precipitation, MM = Missing Value Source: NWS Daily Summary

Daily Weather History Graph

Daily Weather History Graph

Search for Another Location

Airport:

Trip Planner

Search our weather history database for the weather conditions in past years. The results will help you decide how hot, cold, wet, or windy it might be!

Date:

Astronomy

Jan. 08, 2012 Rise Set
Actual Time 7:08 AM MST 4:42 PM MST
Civil Twilight 6:39 AM MST 5:12 PM MST
Nautical Twilight 6:05 AM MST 5:45 PM MST
Astronomical Twilight 5:33 AM MST 6:18 PM MST
Moon 4:28 PM MST (1/8) 6:28 AM MST (1/8)
Length of Visible Light 10h 33m
Length of Day
9h 33m
Full, 100% of the Moon is Illuminated
Jan 8
Full
Jan 9
Full
Jan 16
Last Quarter
Jan 23
New
Jan 30
First Quarter

Hourly Weather History & Observations

Time (MST) Temp. Windchill Dew Point Humidity Pressure Visibility Wind Dir Wind Speed Gust Speed Precip Events Conditions
12:09 AM 26.6 °F 21.2 °F 23.0 °F 86% 30.17 in 2.0 mi East 4.6 mph - 0.00 in Snow Light Snow
12:33 AM 26.6 °F 22.6 °F 23.0 °F 86% 30.17 in 3.0 mi East 3.5 mph - 0.00 in Snow Light Snow
12:53 AM 25.0 °F 19.3 °F 23.0 °F 92% 30.22 in 5.0 mi ESE 4.6 mph - 0.00 in Snow Light Snow
1:53 AM 25.0 °F - 23.0 °F 92% 30.22 in 10.0 mi Calm Calm - 0.01 in   Overcast
2:53 AM 25.0 °F 20.7 °F 21.9 °F 88% 30.23 in 10.0 mi WNW 3.5 mph - N/A   Overcast
3:53 AM 23.0 °F 18.4 °F 21.0 °F 92% 30.23 in 10.0 mi SW 3.5 mph - N/A   Mostly Cloudy
4:53 AM 23.0 °F 14.7 °F 19.9 °F 88% 30.24 in 10.0 mi West 6.9 mph - N/A   Overcast
5:53 AM 23.0 °F 17.0 °F 21.0 °F 92% 30.26 in 10.0 mi West 4.6 mph - N/A   Overcast
6:53 AM 24.1 °F 18.2 °F 21.0 °F 88% 30.27 in 10.0 mi WSW 4.6 mph - N/A   Overcast
7:53 AM 26.1 °F 18.4 °F 23.0 °F 88% 30.28 in 10.0 mi South 6.9 mph - N/A   Overcast
8:53 AM 28.0 °F 18.6 °F 23.0 °F 81% 30.29 in 10.0 mi South 10.4 mph - N/A   Overcast
9:53 AM 30.0 °F 19.5 °F 23.0 °F 75% 30.31 in 10.0 mi South 13.8 mph - N/A   Mostly Cloudy
10:53 AM 32.0 °F 23.6 °F 24.1 °F 73% 30.29 in 10.0 mi SSW 10.4 mph - N/A   Clear
12:53 PM 37.9 °F 33.5 °F 21.9 °F 53% 30.21 in 10.0 mi WSW 5.8 mph - N/A   Clear
1:53 PM 39.0 °F 34.0 °F 21.0 °F 49% 30.21 in 10.0 mi WSW 6.9 mph - N/A   Clear
2:53 PM 39.9 °F 35.1 °F 21.0 °F 47% 30.22 in 10.0 mi WSW 6.9 mph - N/A   Clear
3:53 PM 39.0 °F 35.7 °F 21.0 °F 49% 30.23 in 10.0 mi West 4.6 mph - N/A   Clear
4:53 PM 32.0 °F 26.4 °F 19.9 °F 61% 30.26 in 10.0 mi SSW 5.8 mph - N/A   Clear
5:53 PM 25.0 °F 16.3 °F 18.0 °F 75% 30.30 in 10.0 mi SW 8.1 mph - N/A   Clear
6:53 PM 21.9 °F 12.5 °F 17.1 °F 82% 30.32 in 10.0 mi WSW 8.1 mph - N/A   Clear
7:53 PM 23.0 °F 13.1 °F 19.0 °F 85% 30.31 in 10.0 mi WSW 9.2 mph - N/A   Clear
8:53 PM 23.0 °F 13.1 °F 18.0 °F 81% 30.30 in 10.0 mi WSW 9.2 mph - N/A   Clear
9:53 PM 21.9 °F 11.0 °F 17.1 °F 82% 30.31 in 10.0 mi West 10.4 mph - N/A   Clear
10:53 PM 21.9 °F 11.0 °F 17.1 °F 82% 30.30 in 10.0 mi West 10.4 mph - N/A   Clear
11:53 PM 19.9 °F 9.3 °F 16.0 °F 85% 30.28 in 10.0 mi SW 9.2 mph - N/A   Clear